Location: Home
(42.5358°N, 72.7383°W)
Time: 13:20:22
(UTC-05:00)

Vanguard 1 - Visible Passes

Search period start: 06 December 2021 00:00
Search period end: 16 December 2021 00:00
Orbit: 653 x 3830 km, 34.3° (Epoch: 06 December)

Date Brightness Start Highest point End Pass type
(mag) Time Alt. Az. Time Alt. Az. Time Alt. Az.
06 Dec 13.2 01:07:59 41° ESE 01:07:59 41° ESE 01:17:42 10° E visible
06 Dec 12.6 03:20:41 58° SW 03:23:43 61° SSW 03:39:20 10° ESE visible
06 Dec 12.9 05:33:23 17° W 05:46:14 34° SW 05:57:22 10° SSE visible
06 Dec 13.4 20:16:06 10° S 20:21:09 20° SSE 20:21:09 20° SSE visible
06 Dec 13.9 22:33:33 10° SW 23:14:55 10° E 22:33:52 11° SW visible
07 Dec 13.0 01:27:37 47° ESE 01:27:37 47° ESE 01:38:46 10° ESE visible
07 Dec 12.6 03:40:19 51° WSW 03:44:44 56° SSW 03:59:54 10° SE visible
07 Dec 13.1 05:53:01 12° W 06:06:27 27° SW 06:16:46 10° S visible
07 Dec 13.3 20:35:14 10° SSW 20:40:59 24° S 20:40:59 24° S visible
07 Dec 14.0 23:34:35 14° E 23:34:35 14° E 23:36:08 10° E visible
08 Dec 12.9 01:47:17 52° SE 01:47:17 52° SE 01:59:46 10° ESE visible
08 Dec 12.7 04:00:00 43° WSW 04:05:34 50° SSW 04:20:16 10° SE visible
08 Dec 13.3 06:14:32 10° W 06:26:31 20° SW 06:35:28 10° SSW visible
08 Dec 13.5 18:43:47 10° SE 18:48:07 13° SE 18:48:07 13° SE visible
08 Dec 13.3 20:54:51 10° SSW 21:00:50 26° S 21:00:50 26° S visible
08 Dec 13.9 23:54:16 18° E 23:54:16 18° E 23:57:26 10° E visible
09 Dec 12.8 02:06:58 57° SE 02:06:58 57° SE 02:20:40 10° ESE visible
09 Dec 12.8 04:19:40 36° WSW 04:26:14 43° SW 04:40:24 10° SSE visible
09 Dec 13.5 06:38:53 10° W 06:46:28 14° WSW 06:52:47 10° SSW visible
09 Dec 13.3 19:00:09 10° SSE 19:07:58 19° SE 19:07:58 19° SE visible
09 Dec 13.3 21:14:51 10° SW 21:20:41 27° SSW 21:20:41 27° SSW visible
10 Dec 13.7 00:13:59 22° E 00:13:59 22° E 00:18:41 10° E visible
10 Dec 12.8 02:26:42 58° SSE 02:26:42 58° SSE 02:41:27 10° ESE visible
10 Dec 13.0 04:39:24 30° WSW 04:46:43 36° SW 05:00:13 10° SSE visible
10 Dec 13.1 19:18:27 10° S 19:27:49 25° SE 19:27:49 25° SE visible
10 Dec 13.3 21:35:08 10° SW 21:40:32 27° SW 21:40:32 27° SW visible
11 Dec 13.6 00:33:43 27° ESE 00:33:43 27° ESE 00:39:52 10° ESE visible
11 Dec 12.8 02:46:26 56° S 02:46:26 56° S 03:02:03 10° SE visible
11 Dec 13.2 04:59:09 23° WSW 05:07:01 29° SW 05:19:38 10° S visible
11 Dec 12.9 19:37:34 10° SSW 19:47:40 31° SSE 19:47:40 31° SSE visible
11 Dec 13.4 21:55:38 10° SW 22:40:47 - E 22:00:23 25° SW visible
12 Dec 13.5 00:53:30 31° ESE 00:53:30 31° ESE 01:00:58 10° ESE visible
12 Dec 12.8 03:06:12 51° SSW 03:06:12 51° SSW 03:22:28 10° SE visible
12 Dec 13.3 05:18:55 18° W 05:27:10 23° SW 05:38:25 10° S visible
12 Dec 13.4 17:48:59 10° SE 17:50:53 10° ESE 17:52:53 10° ESE visible
12 Dec 12.8 19:57:11 10° SSW 20:07:30 37° SSE 20:07:30 37° SSE visible
12 Dec 13.5 22:16:19 10° WSW 23:00:35 - E 22:20:13 23° WSW visible
13 Dec 13.4 01:13:17 35° SE 01:13:17 35° SE 01:21:57 10° ESE visible
13 Dec 12.9 03:26:00 45° SW 03:26:00 45° SW 03:42:37 10° SSE visible
13 Dec 13.5 05:38:43 12° W 05:47:13 16° SW 05:56:05 10° SSW visible
13 Dec 13.2 18:03:21 10° SSE 18:10:46 16° SE 18:14:36 15° ESE visible
13 Dec 12.7 20:17:11 10° SW 20:27:19 42° S 20:27:19 42° S visible
13 Dec 13.6 22:37:09 10° WSW 23:20:24 - E 22:40:02 19° WSW visible
14 Dec 13.3 01:33:06 38° SE 01:33:06 38° SE 01:42:49 10° ESE visible
14 Dec 13.0 03:45:49 38° SW 03:46:33 38° SW 04:02:27 10° SSE visible
14 Dec 13.7 06:05:02 10° WSW 06:07:10 10° WSW 06:09:14 10° SW visible
14 Dec 13.0 18:21:27 10° S 18:30:45 23° SE 18:34:24 21° ESE visible
14 Dec 12.7 20:37:26 10° SW 20:47:07 45° S 20:47:07 45° S visible
14 Dec 13.7 22:58:05 10° WSW 23:40:13 10° ESE 22:59:50 15° WSW visible
15 Dec 13.2 01:52:56 39° SSE 01:52:56 39° SSE 02:03:29 10° SE visible
15 Dec 13.2 04:05:39 31° SW 04:06:59 31° SW 04:21:51 10° S visible
15 Dec 12.8 18:40:32 10° S 18:50:53 30° SE 18:54:11 28° ESE visible
15 Dec 12.7 20:57:53 10° SW 21:06:53 45° SSW 21:06:53 45° SSW visible
